AO-07 1 07530U 74089B 24066.53754552 -.00000018 00000-0 17895-3 0 9990 2 07530 101.9749 60.2390 0011893 280.7477 193.8836 12.53672895256172 UO-11 1 14781U 84021B 24066.90377114 .00002045 00000-0 23899-3 0 9991 2 14781 97.6936 39.3577 0009580 60.1898 300.0269 14.86144320154295 AO-16 1 20439U 90005D 24066.99682837 .00000303 00000-0 12686-3 0 9994 2 20439 98.9008 69.2620 0011319 146.4756 272.3648 14.33295659782946 LO-19 1 20442U 90005G 24066.54963176 .00000341 00000-0 14028-3 0 9991 2 20442 98.8765 54.1572 0012620 123.6847 236.5541 14.33453057783079 AO-27 1 22825U 93061C 24067.13559547 .00000184 00000-0 88073-4 0 9999 2 22825 98.8036 118.7839 0008750 24.4616 335.6979 14.30436784588299 IO-26 1 22826U 93061D 24066.72154693 .00000220 00000-0 10131-3 0 9997 2 22826 98.7983 118.2267 0009012 11.0168 349.1210 14.30811798588498 FO-29 1 24278U 96046B 24066.41883066 .00000010 00000-0 42846-4 0 9991 2 24278 98.5700 14.5922 0351133 94.4496 269.6838 13.53174062360530 NOAA-15 1 25338U 98030A 24067.11428722 .00000275 00000-0 13208-3 0 9998 2 25338 98.5809 96.3221 0009251 261.6283 98.3849 14.26507328342884 GO-32 1 25397U 98043D 24067.14532472 .00000170 00000-0 93849-4 0 9992 2 25397 98.9093 32.4150 0002365 91.5365 268.6084 14.23995922333117 ISS 1 25544U 98067A 24067.56731978 .00016977 00000-0 30772-3 0 9997 2 25544 51.6417 99.0247 0005893 337.3735 123.3462 15.49716982442792 NO-44 1 26931U 01043C 24066.61912169 .00000399 00000-0 18242-3 0 9993 2 26931 67.0497 236.5098 0005313 277.3392 82.7106 14.31139032171273 SO-50 1 27607U 02058C 24066.60620967 .00002582 00000-0 36835-3 0 9996 2 27607 64.5554 176.7138 0036692 157.8649 202.4050 14.78440157141158 CO-55 1 27844U 03031E 24067.00857108 .00000584 00000-0 27776-3 0 9999 2 27844 98.6804 75.4606 0010925 82.5610 277.6809 14.23106437 73289 CO-57 1 27848U 03031J 24066.55168897 .00000521 00000-0 25243-3 0 9990 2 27848 98.6836 75.3101 0010841 97.8688 262.3721 14.22570291 72946 RS-22 1 27939U 03042A 24067.18032650 .00001970 00000-0 34109-3 0 9990 2 27939 98.2753 221.8860 0012596 27.2638 149.7927 14.69437340 93297 NOAA-18 1 28654U 05018A 24067.18288384 .00000282 00000-0 17422-3 0 9991 2 28654 98.8810 144.9798 0013914 356.5404 3.5670 14.13138172968856 CO-58 1 28895U 05043F 24067.09251694 .00002490 00000-0 45235-3 0 9996 2 28895 98.1830 202.9264 0015224 322.6353 37.3791 14.67010969979712 CO-65 1 32785U 08021C 24066.88039035 .00005854 00000-0 53699-3 0 9997 2 32785 97.7429 33.2551 0010066 314.4193 45.6203 14.95216199860250 AAUSAT2 1 32788U 08021F 24066.92026697 .00016993 00000-0 98538-3 0 9992 2 32788 97.5876 47.3235 0007432 146.6233 213.5468 15.12217468862942 CO-66 1 32791U 08021J 24066.84646715 .00010691 00000-0 83416-3 0 9994 2 32791 97.6850 38.8444 0003679 280.3724 79.7085 15.01326514861235 RS-30 1 32953U 08025A 24067.18309262 .00000016 00000-0 41044-4 0 9991 2 32953 82.5060 152.9314 0018307 329.8604 30.1421 12.43136568716454 PRISM 1 33493U 09002B 24067.05972753 .00017059 00000-0 93351-3 0 9996 2 33493 98.2214 106.2463 0012664 233.0643 126.9427 15.14266142823570 NOAA-19 1 33591U 09005A 24067.12012043 .00000265 00000-0 16676-3 0 9999 2 33591 99.0615 121.7855 0013376 216.6519 143.3738 14.12940862777212 SRMSAT 1 37841U 11058D 24067.15138241 .00000560 00000-0 16179-3 0 9990 2 37841 19.9724 53.8889 0011969 53.8406 27.6372 14.11049949640357 HRBE 1 37855U 11061F 24066.84418434 .00079839 00000-0 12369-2 0 9990 2 37855 101.6840 187.6224 0075979 298.9518 60.4115 15.50421128677511 RS-40 1 38735U 12041C 24067.16508987 .00000043 00000-0 24125-3 0 9991 2 38735 82.4730 233.4711 0018032 82.4788 277.8339 12.42604676526600 ZACUBE-1 1 39417U 13066B 24067.14380596 .00004545 00000-0 49129-3 0 9991 2 39417 97.7221 25.5893 0053330 136.3030 224.2427 14.87746369556404 Delfi-N3xt 1 39428U 13066N 24066.71636257 .00008402 00000-0 11141-2 0 9991 2 39428 97.8393 347.9057 0105988 60.7736 300.4024 14.76189662551141 GOMX-1 1 39430U 13066Q 24067.12981789 .00002494 00000-0 42615-3 0 9999 2 39430 97.7486 307.6610 0140776 216.6667 142.4840 14.63416672548116 LO-74 1 39440U 13066AA 24067.07085883 .00004606 00000-0 56219-3 0 9996 2 39440 97.8034 13.1095 0069852 247.1849 112.1976 14.82070799554409 AO-73 1 39444U 13066AE 24067.15052999 .00006142 00000-0 62394-3 0 9999 2 39444 97.7074 28.4905 0051486 118.8468 241.7931 14.90174019555499 SPROUT 1 39770U 14029E 24066.97718959 .00060524 00000-0 25382-2 0 9994 2 39770 98.0043 211.0007 0003824 200.3239 159.7845 15.23260244531983 DTUSAT-2 1 40030U 14033W 24066.84898690 .00007188 00000-0 63642-3 0 9996 2 40030 97.9959 16.8055 0011234 130.0582 230.1626 14.96533662527898 EO-80 1 40032U 14033Y 24066.82089468 .00007659 00000-0 67673-3 0 9992 2 40032 97.9972 16.7905 0011610 128.3247 231.9019 14.96590796527878 HODOYOSHI-1 1 40299U 14070B 24067.12557163 .00019363 00000-0 44663-3 0 9993 2 40299 97.1553 128.8233 0009359 54.1314 306.0802 15.42557735519364 XW-2C 1 40906U 15049H 24066.99114840 .00022463 00000-0 63858-3 0 9992 2 40906 97.4878 81.6124 0007543 318.2577 41.8090 15.36144725468758 XW-2D 1 40907U 15049J 24067.07702675 .00029534 00000-0 72110-3 0 9999 2 40907 97.4834 83.3548 0005647 305.8957 54.1764 15.40792198468930 LILACSAT-2 1 40908U 15049K 24066.97732324 .00009182 00000-0 38093-3 0 9991 2 40908 97.5285 75.1086 0012567 358.3864 1.7330 15.24020146467910 XW-2E 1 40909U 15049L 24066.89665053 .00346061 00000-0 14091-2 0 9998 2 40909 97.4189 95.6017 0004561 181.2928 178.8331 15.85296661470075 XW-2F 1 40910U 15049M 24066.94604601 .00308967 00000-0 14658-2 0 9990 2 40910 97.4307 94.8170 0004497 184.9032 175.2193 15.82128915469791 XW-2B 1 40911U 15049N 24066.99832520 .00029197 00000-0 72440-3 0 9998 2 40911 97.4810 83.5006 0005851 308.4628 51.6092 15.40304926468799 IO-86 1 40931U 15052B 24006.28856983 .00001263 00000-0 84248-4 0 9993 2 40931 6.0004 76.3799 0013541 291.8204 68.0484 14.77555377447321 ChubuSat-2 1 41338U 16012B 24067.12056155 .00005491 00000-0 35311-3 0 9998 2 41338 31.0025 326.9966 0012240 293.6956 66.2396 15.06829363442186 ChubuSat-3 1 41339U 16012C 24067.09603501 .00005010 00000-0 32536-3 0 9991 2 41339 31.0091 325.0836 0012175 298.7856 61.1558 15.06408857442161 Horyu-4 1 41340U 16012D 24066.94410750 .00011580 00000-0 62708-3 0 9991 2 41340 31.0020 280.3760 0011271 13.4473 346.6465 15.13328688442638 e-st@r-II 1 41459U 16025D 24067.12043492 .00131478 00000-0 13102-2 0 9994 2 41459 98.1432 305.0264 0049824 241.5015 118.1219 15.63653491433586 Lapan A3 1 41603U 16040E 24067.12784221 .00003724 00000-0 15483-3 0 9991 2 41603 97.1500 85.5000 0014121 101.9083 258.3740 15.24290721427675 Pratham 1 41783U 16059A 24066.79811818 .00001295 00000-0 25083-3 0 9993 2 41783 97.8463 90.9185 0032290 347.9403 12.1024 14.64571527397551 CAS-2T 1 41847U 16066G 24066.19875169 .00002677 00000-0 39791-3 0 9991 2 41847 98.4707 138.2559 0356646 127.3046 236.1219 14.40817040384667 CAS-4B 1 42759U 17034B 24067.14571102 .00013114 00000-0 53670-3 0 9996 2 42759 43.0123 81.4774 0010840 27.4329 332.7091 15.24176560371815 CAS-4A 1 42761U 17034D 24067.15521252 .00015037 00000-0 61197-3 0 9990 2 42761 43.0107 79.8456 0010470 29.9313 330.2135 15.24275423371828 NIUSat 1 42766U 17036B 24067.04230737 .00140249 00000-0 10404-2 0 9998 2 42766 97.1167 101.3545 0005535 181.5923 178.5325 15.72439618373510 Aalto 1 1 42775U 17036L 24066.59345275 .00051167 00000-0 84656-3 0 9992 2 42775 97.1218 96.1763 0005684 200.3770 159.7257 15.52029233373123 URSA MAIOR 1 42776U 17036M 24066.62631852 .00080922 00000-0 10337-2 0 9991 2 42776 97.1197 98.9525 0005382 188.7293 171.3871 15.58974468373295 Max Valier Sat 1 42778U 17036P 24067.09660802 .00055514 00000-0 68637-3 0 9998 2 42778 97.1214 103.4941 0005335 189.5373 170.5784 15.59936310373544 D-SAT 1 42794U 17036AF 24067.19783830 .00004880 00000-0 35943-3 0 9998 2 42794 97.4905 52.8653 0110956 131.1584 229.9278 14.98915504365465 TechnoSat 1 42829U 17042E 24067.05271288 .00003937 00000-0 35902-3 0 9995 2 42829 97.3816 253.9233 0013859 61.2506 299.0106 14.95573916361900 AO-91 1 43017U 17073E 24066.65583851 .00010082 00000-0 65396-3 0 9995 2 43017 97.5950 305.8600 0216452 275.9541 81.7048 14.90970424340372 TianYi 2 1 43155U 18008A 24067.11920309 .00048006 00000-0 10821-2 0 9991 2 43155 97.2564 120.4459 0009557 90.7628 269.4716 15.43060627339088 Zhou Enlai 1 43156U 18008B 24067.17418800 .00060776 00000-0 12044-2 0 9993 2 43156 97.2602 121.4246 0007165 92.4720 267.7350 15.46821051339064 TianYi 6 1 43158U 18008D 24067.09943599 .00032872 00000-0 91705-3 0 9992 2 43158 97.2696 116.2148 0009221 99.3065 260.9223 15.36638078338747 S-Net D 1 43186U 18014G 24066.91818585 .00005018 00000-0 37539-3 0 9993 2 43186 97.6015 330.6183 0010782 7.6235 352.5152 15.03154762333137 S-Net B 1 43187U 18014H 24066.18777203 .00005493 00000-0 41052-3 0 9996 2 43187 97.6023 329.8427 0011469 4.1130 356.0188 15.03142197333022 S-Net A 1 43188U 18014J 24066.25372890 .00005496 00000-0 41069-3 0 9999 2 43188 97.6027 330.0127 0011360 4.8429 355.2904 15.03149356333038 S-Net C 1 43189U 18014K 24066.19006333 .00005568 00000-0 41593-3 0 9991 2 43189 97.6044 329.8759 0012785 355.2066 4.9035 15.03145826331575 Changshagaoxin 1 43669U 18083H 24067.12385141 .00117847 00000-0 12163-2 0 9995 2 43669 97.3446 102.3367 0002835 201.2138 158.9004 15.64403783297714 Ten-Koh 1 43677U 18084G 24067.10799532 .00003996 00000-0 37012-3 0 9996 2 43677 98.0462 217.8110 0014391 0.7420 359.3819 14.95019410291463 PO-101 1 43678U 18084H 24067.13777466 .00001742 00000-0 16621-3 0 9992 2 43678 98.0556 222.2669 0009562 15.5157 344.6354 14.94678663291676 QO-100 1 43700U 18090A 24067.08374155 .00000139 00000-0 00000+0 0 9996 2 43700 0.0175 234.3780 0000995 131.5120 215.3317 1.00271147 19579 MinXSS-2 1 43758U 18099A 24067.15744720 .00007858 00000-0 53651-3 0 9994 2 43758 97.5681 131.2313 0016414 309.3911 50.5862 15.06345873287411 AO-95 1 43770U 18099N 24066.16601277 .00007851 00000-0 57521-3 0 9990 2 43770 97.5616 126.3056 0014135 359.0906 1.0292 15.03729621287070 RANGE-B 1 43772U 18099Q 24067.16315235 .00009763 00000-0 65770-3 0 9998 2 43772 97.5384 130.4847 0004278 255.1997 104.8757 15.06878796287340 RANGE-A 1 43773U 18099R 24066.68932797 .00005247 00000-0 41395-3 0 9993 2 43773 97.5211 123.2253 0017537 331.4223 28.6038 15.01030212287054 MOVE-II 1 43780U 18099Y 24067.14077148 .00014330 00000-0 85355-3 0 9990 2 43780 97.5349 131.3803 0006632 335.5170 24.5745 15.11290081287496 SNUSat 2 1 43782U 18099AA 24066.12968167 .00006320 00000-0 47225-3 0 9993 2 43782 97.5266 125.9633 0014541 295.7795 64.1929 15.03059841287081 SnugLite 1 43784U 18099AC 24066.15382601 .00007819 00000-0 56931-3 0 9999 2 43784 97.5116 125.4056 0003244 317.2525 42.8448 15.04038052287148 ITASat 1 1 43786U 18099AE 24066.16162473 .00006262 00000-0 47346-3 0 9996 2 43786 97.5271 126.3963 0016903 348.1988 11.8839 15.02581451287099 EAGLET 1 1 43790U 18099AJ 24066.39149240 .00005184 00000-0 40427-3 0 9998 2 43790 97.5355 127.0566 0014706 330.2305 29.8081 15.01513182286843 ESEO 1 43792U 18099AL 24066.69437872 .00002805 00000-0 23617-3 0 9993 2 43792 97.5309 124.8013 0010924 319.6740 40.3672 14.98969993286842 CSIM 1 43793U 18099AM 24066.13122303 .00015597 00000-0 92747-3 0 9995 2 43793 97.5424 132.0210 0013094 309.6008 50.4065 15.11277993287193 JO-97 1 43803U 18099AX 24066.79104081 .00009340 00000-0 66083-3 0 9995 2 43803 97.5336 127.8546 0009541 294.1137 65.9091 15.05033958287288 Suomi 100 1 43804U 18099AY 24067.12968743 .00007091 00000-0 50990-3 0 9998 2 43804 97.5408 127.9929 0015638 290.9617 68.9936 15.04454363287328 CHOMPTT 1 43855U 18104G 24066.19536810 .00128611 00000-0 10689-2 0 9995 2 43855 85.0202 344.0821 0009664 64.7207 295.5061 15.69702513291343 ISAT 1 43879U 18111D 24067.15948278 .00010829 00000-0 71426-3 0 9999 2 43879 97.6277 333.5403 0013696 355.2025 4.9069 15.07570889282010 UWE-4 1 43880U 18111E 24066.22867720 .00010584 00000-0 70993-3 0 9996 2 43880 97.6186 332.8717 0017695 5.5677 354.5744 15.06899453283916 Sparrow 1 43881U 18111F 24066.30045796 .00011551 00000-0 75321-3 0 9992 2 43881 97.6349 334.4058 0011785 39.2555 320.9525 15.07995809283969 AISTechSat 3 1 44103U 19018AB 24067.11965349 .00173446 00000-0 10596-2 0 9996 2 44103 97.2015 132.8592 0001750 358.7149 1.4113 15.76875409275486 AISat 1 1 44104U 19018AC 24066.83315284 .00076230 00000-0 65866-3 0 9996 2 44104 97.3623 171.3381 0023311 3.0921 357.0480 15.68617267276702 Prox-1 1 44339U 19036A 24066.70210514 .00011622 00000-0 21154-2 0 9997 2 44339 23.9993 163.3897 0008226 303.4902 56.4805 14.64277186250287 SONATE 1 44400U 19038Q 24066.96362563 .00017007 00000-0 59734-3 0 9997 2 44400 97.7095 56.9088 0020108 106.0360 254.3096 15.29274941258439 BeeSat 9 1 44412U 19038AC 24066.23649164 .00097443 00000-0 13833-2 0 9996 2 44412 97.6871 64.9207 0013796 85.8045 274.4785 15.55981439258641 JAISAT-1 1 44419U 19038F 24066.55993432 .00098028 00000-0 14140-2 0 9990 2 44419 97.6858 66.3444 0013273 85.0179 275.2590 15.55553060259078 Taurus 1 1 44530U 19059C 24067.14212086 .00006009 00000-0 14517-2 0 9998 2 44530 98.5634 184.8408 0011291 8.3998 351.7384 14.53444488236936 Duchifat 3 1 44854U 19089C 24067.06753785 .00012815 00000-0 72156-3 0 9993 2 44854 36.9592 307.1838 0010003 325.4173 34.5921 15.12608593232719 OPS-SAT 1 44878U 19092F 24066.80533009 .00188704 00000-0 23249-2 0 9998 2 44878 97.4540 267.4498 0005551 256.8657 103.1980 15.59560910234469 TO-108 1 44881U 19093C 24067.19529754 .00001418 00000-0 17931-3 0 9996 2 44881 97.8352 145.9505 0013305 298.9562 61.0317 14.83338855227921 FloripaSat 1 1 44885U 19093G 24067.17035922 .00005466 00000-0 59059-3 0 9991 2 44885 97.8454 150.6369 0011868 293.4330 66.5638 14.88684997228185 RS-44 1 44909U 19096E 24066.38119869 .00000013 00000-0 17190-4 0 9990 2 44909 82.5259 173.0761 0216341 291.6639 66.1547 12.79727097195822 BY70-2 1 45857U 20042B 24067.15559304 .00048223 00000-0 29918-2 0 9998 2 45857 97.9132 155.9659 0008544 209.4412 150.6336 15.09511463199069 UPMSat 2 1 46276U 20061E 24067.13796171 .00013792 00000-0 47601-3 0 9991 2 46276 97.3106 134.8174 0002392 113.6767 246.4725 15.30074516194554 AmicalSat 1 46287U 20061R 24066.73647440 .00025687 00000-0 87830-3 0 9996 2 46287 97.3634 134.4633 0001599 204.9535 155.1629 15.30250679193861 SALSAT 1 46495U 20068K 24066.44602038 .00007112 00000-0 42584-3 0 9996 2 46495 97.8040 23.3819 0012813 309.6903 50.3195 15.11271566188789 AO-109 1 47311U 21002C 24066.57825936 .00178332 00000-0 12090-2 0 9992 2 47311 60.6677 107.1773 0025456 68.9155 291.4674 15.73682714175147 ExoCube 2 1 47319U 21002L 24066.57127943 .00145579 00000-0 11558-2 0 9998 2 47319 60.6658 111.5964 0026265 70.8245 289.5704 15.70038086175030 UVSQ-SAT 1 47438U 21006AB 24066.66215008 .00035619 00000-0 96635-3 0 9997 2 47438 97.3440 126.5441 0007149 215.7780 144.2987 15.37506787172935 YUSAT 1 1 47439U 21006AC 24067.10501717 .00052673 00000-0 10600-2 0 9999 2 47439 97.3429 129.6591 0006684 207.5971 152.4925 15.46412698173174 SOMP 2b 1 47445U 21006AJ 24066.70602111 .00032640 00000-0 93590-3 0 9993 2 47445 97.3406 125.2875 0006972 224.0538 136.0151 15.35800365172882 IDEASSat 1 47458U 21006AX 24067.12477727 .00025270 00000-0 76433-3 0 9995 2 47458 97.3507 126.4225 0006668 223.1369 136.9352 15.34171065172906 CubeSX-Sirius-HSE 1 47951U 21022V 24067.15722160 .00014608 00000-0 65863-3 0 9996 2 47951 97.4727 326.0868 0017115 131.3894 228.8816 15.20997779163046 CubeSX-HSE 1 47952U 21022W 24067.11745401 .00015312 00000-0 68836-3 0 9992 2 47952 97.4729 326.1225 0017070 130.8167 229.4552 15.21089843163043 KSU-Cubesat 1 47954U 21022Y 24066.67748415 .00021698 00000-0 91896-3 0 9998 2 47954 97.4734 326.6131 0016230 128.8884 231.3803 15.23059440162752 GRBAlpha 1 47959U 21022AD 24067.15424928 .00014934 00000-0 66956-3 0 9991 2 47959 97.4730 326.2895 0016884 130.9174 229.3527 15.21190467161872 Orbicraft-Zorkiy 1 47960U 21022AE 24067.13129777 .00018616 00000-0 79836-3 0 9997 2 47960 97.4769 327.2244 0016375 128.2098 232.0616 15.22665089162605 STECCO 1 47962U 21022AG 24067.15233443 .00055115 00000-0 14242-2 0 9991 2 47962 97.4738 333.4456 0011534 99.8501 260.4046 15.38866286162343 MO-110 1 47964U 21022AJ 24066.71274235 .00068883 00000-0 16448-2 0 9994 2 47964 97.4750 334.1900 0012817 97.5921 262.6782 15.41194351162349 TUBIN 1 48900U 21059X 24067.17156963 .00014337 00000-0 55573-3 0 9991 2 48900 97.6285 209.2474 0008176 84.2400 275.9770 15.26224618149343 LEDSAT 1 49069U 21073D 24067.13545868 .00013064 00000-0 59208-3 0 9991 2 49069 97.4493 139.2180 0019707 282.2905 77.6124 15.20805539140923 CUTE 1 49263U 21088D 24067.12175587 .00013455 00000-0 71163-3 0 9997 2 49263 97.5107 134.0688 0016357 77.6221 282.6841 15.15465624134167 TeikyoSat 4 1 49396U 21102B 24067.11995885 .00002338 00000-0 17494-3 0 9996 2 49396 97.4766 115.6032 0011422 262.2117 97.7813 15.03651931127415 Z-Sat 1 49399U 21102E 24067.13926087 .00004382 00000-0 29397-3 0 9995 2 49399 97.4477 116.9659 0019505 245.9703 113.9484 15.07194985127617 KOSEN 1 1 49402U 21102H 24067.10528582 .00005561 00000-0 34687-3 0 9993 2 49402 97.4396 118.0417 0018476 230.3809 129.5790 15.09773811127737 HO-113 1 50466U 21131B 24067.15875976 .00000791 00000-0 26855-3 0 9992 2 50466 98.5308 152.7235 0005197 77.8419 282.3351 14.39402513115327 Tevel-3 1 50988U 22002E 24067.15270271 .00053076 00000-0 11403-2 0 9992 2 50988 97.3943 139.8494 0003843 14.4702 345.6656 15.44504407119203 Tevel-8 1 50989U 22002F 24067.18553003 .00051427 00000-0 11093-2 0 9996 2 50989 97.3961 139.9683 0003810 12.8108 347.3236 15.44393827119206 Tevel-5 1 50998U 22002Q 24067.13768117 .00056824 00000-0 11311-2 0 9994 2 50998 97.3938 140.7144 0004320 1.4176 358.7085 15.46726312119263 Tevel-6 1 50999U 22002R 24067.13870664 .00057684 00000-0 11503-2 0 9994 2 50999 97.3936 140.6984 0004300 1.3892 358.7369 15.46669941119264 Tevel-1 1 51013U 22002AF 24067.17399749 .00052864 00000-0 11399-2 0 9994 2 51013 97.3936 139.7586 0003674 13.6595 346.4752 15.44397783119202 IRIS-A 1 51044U 22002BN 24067.17059832 .00014881 00000-0 56465-3 0 9995 2 51044 97.3979 134.3439 0007251 42.8062 317.3740 15.26923979118833 Tevel-7 1 51062U 22002CG 24067.17959951 .00052769 00000-0 11349-2 0 9994 2 51062 97.3955 139.9341 0003764 13.0398 347.0947 15.44474931119207 Tevel-4 1 51063U 22002CH 24067.13831340 .00050014 00000-0 10835-2 0 9992 2 51063 97.3955 139.8284 0003728 13.0742 347.0602 15.44272340119192 Tevel-2 1 51069U 22002CP 24067.15233643 .00052666 00000-0 11305-2 0 9990 2 51069 97.3941 139.8159 0003794 13.4450 346.6899 15.44532078119209 SO-115 1 51080U 22002DA 24067.19029658 .00092923 00000-0 13476-2 0 9997 2 51080 97.4213 147.0427 0004179 23.1378 337.0064 15.55516360119496 SO-114 1 51081U 22002DB 24066.20359877 .00103773 00000-0 14554-2 0 9992 2 51081 97.4221 146.1410 0003890 25.5980 334.5466 15.56389092119356 OreSat0 1 52017U 22026K 24066.96357913 .00039550 00000-0 97865-3 0 9998 2 52017 97.5053 77.6927 0013688 217.9767 142.0515 15.40242646109911 Planetum 1 1 52738U 22057G 24066.90381866 .00028794 00000-0 91928-3 0 9992 2 52738 97.5529 190.1935 0005802 152.6222 207.5326 15.32428445 98861 Foresail-1 1 52766U 22057AL 24067.13596577 .00016885 00000-0 63370-3 0 9994 2 52766 97.5676 190.7200 0010826 128.9065 231.3141 15.27232820 98852 SNUGLITE 2 1 52899U 22065F 24067.11684373 .00001876 00000-0 39762-3 0 9992 2 52899 98.1008 210.3725 0008813 110.3768 249.8380 14.60310946 89361 IO-117 1 53106U 22080B 24064.84326825 -.00000003 00000-0 00000+0 0 9994 2 53106 70.1320 228.7693 0008270 127.5810 232.5602 6.42557706 38562 SelfieSat 1 53951U 22057BC 24066.85404216 .00045198 00000-0 11633-2 0 9990 2 53951 97.5563 192.3596 0005793 148.2329 211.9267 15.39088924 98978 FO-118 1 54684U 22167C 24067.16271310 .00023288 00000-0 96741-3 0 9998 2 54684 97.5893 210.1796 0011220 142.9094 217.2920 15.23764812 68737 SSS-2B 1 56184U 23054G 24067.13523363 .00023570 00000-0 73062-3 0 9991 2 56184 97.3830 324.7998 0008278 165.7096 194.4383 15.33392965 50460 CIRBE 1 56188U 23054L 24066.66243503 .00046717 00000-0 11980-2 0 9995 2 56188 97.3754 325.0493 0007472 150.5272 209.6397 15.39181867 50452 INSPIRE-Sat 7 1 56211U 23054AK 24066.68967717 .00047500 00000-0 11648-2 0 9996 2 56211 97.3795 326.0393 0011265 139.9767 220.2312 15.40506411 50510 RoseyCubesat 1 1 56212U 23054AL 24067.13751778 .00046683 00000-0 10813-2 0 9990 2 56212 97.3801 326.8357 0011308 136.0473 224.1675 15.42233130 50609 SO-120 1 56992U 23084BU 24067.13521814 .00021186 00000-0 94028-3 0 9996 2 56992 97.5195 186.0129 0014295 24.2152 335.9752 15.21499864 40639 MRC-100 1 56993U 23084BV 24066.81268984 .00028324 00000-0 12189-2 0 9995 2 56993 97.5198 185.8482 0013833 23.8347 336.3527 15.22496664 40608 UmKA 1 (RS40S) 1 57172U 23091G 24067.12995717 .00004890 00000-0 33799-3 0 9992 2 57172 97.6279 120.2535 0018996 108.2817 252.0479 15.06046507 38129 CubeBel-2 (EU11S) 1 57175U 23091K 24067.17474946 .00006780 00000-0 46514-3 0 9995 2 57175 97.6266 120.1830 0016879 120.0962 240.1941 15.06216915 38120 VERONIKA 1 58261U 23174F 24067.14587794 .00014653 00000-0 74873-3 0 9994 2 58261 97.4705 143.1860 0012490 236.4588 123.5453 15.16713048 18223 KAFASAT 1 58317U 23174BP 24067.14282868 .00018317 00000-0 87891-3 0 9995 2 58317 97.4653 143.4126 0011815 213.8975 146.1505 15.18868828 18244 ENSO 1 58470U 23185J 24067.18021067 .00011992 00000-0 56874-3 0 9992 2 58470 97.4399 135.2229 0012386 276.4551 83.5273 15.19365116 14631 EIRSAT-1 1 58472U 23185L 24067.17717031 .00012056 00000-0 56913-3 0 9992 2 58472 97.4393 135.2165 0012176 277.4250 82.5601 15.19526788 14638 SO-121 1 58567U 23174CY 24066.19021079 .00032459 00000-0 15213-2 0 9992 2 58567 97.4661 142.4078 0014342 228.7148 131.2853 15.19531687 18095 Clark sat-1 (AMBITIOUS) 1 58613U 98067WE 24067.11492651 .00205916 00000-0 15488-2 0 9992 2 58613 51.6331 95.4702 0009359 16.9472 343.1837 15.71325551 12496 BeliefSat-0 1 58695U 24001B 24066.98769483 .00453495 50487-4 77651-3 0 9999 2 58695 9.6611 273.8184 0007625 323.2369 36.7324 16.00708667 10444 /EX